[[{"header":{"parameterUnit":"m.s-1","parameterCategory":1,"la1":30.2991,"la2":30.254,"lo1":-89.0895,"lo2":-89.0444,"dy":0.0017,"dx":0.0017,"nx":28,"ny":28,"refTime":"2023-08-17T03:00:00:Z","depth":0,"parameterNumber":2,"parameterNumberName":"U-component_of_WINDS"},"data":[0,0,0,0,0,0,0,0,0,0,0,0,0,0,0,0,0,0,0,0,0,0,0,0,0,0,0,0,0,0,0,0,0,0,0,0,0,0,0,0,0,0,0,0,0,0,0,0,0,0,0,0,0,0,0,0,0,0,3.835,3.8352,0,3.8512,3.8514,3.8516,3.8476,3.8473,3.847,3.8467,3.8633,3.864,3.8647,0,0,0,0,0,0,0,0,0,0,0,0,0,3.8005,3.8011,3.835,3.8352,3.8354,3.8512,3.8514,3.8516,3.8477,3.8473,3.8469,3.8466,3.8631,3.8639,3.8648,0,0,0,0,0,0,0,0,0,0,0,0,0,3.8159,3.8013,3.8349,3.8353,3.8355,3.8511,3.8514,3.8517,3.8478,3.8473,3.8468,3.8464,3.8628,3.8638,3.8649,3.8811,0,0,3.8683,3.8688,0,0,0,0,0,0,0,0,3.8151,3.8172,3.8351,3.8353,3.8356,3.8469,3.8453,3.8615,3.8479,3.8431,3.8467,3.8462,3.8582,3.8597,3.8637,3.8819,3.8826,3.8684,3.8691,3.8695,3.8698,0,0,0,0,0,0,0,3.814,3.8165,3.8414,3.8353,3.8357,3.8346,3.8363,3.8484,3.8531,3.8435,3.8433,3.8452,3.8583,3.8627,3.8641,3.8828,3.8684,3.8693,3.87,3.8704,3.9148,3.9153,0,0,0,0,0,0,3.8127,3.8156,3.8409,3.8419,3.824,3.8356,3.8375,3.8438,3.853,3.8539,3.8456,3.845,3.861,3.8628,3.8647,3.884,3.8695,3.8706,3.8712,3.9143,3.9149,3.9155,0,0,0,0,0,0,3.812,3.815,3.8402,3.8287,3.8318,3.8367,3.8438,3.8443,3.8487,3.8546,3.8554,3.8493,3.8607,3.8631,3.877,3.8846,3.871,3.872,3.9137,3.9145,3.9152,3.923,0,0,0,0,0,0,3.811,3.8148,3.821,3.8289,3.8325,3.8524,3.8442,3.845,3.8506,3.85,3.8582,3.8591,3.8606,3.8754,3.8781,3.8858,3.8729,3.913,3.9141,3.915,3.9221,3.924,3.9256,0,0,0,0,0,3.8098,3.8226,3.8214,3.8244,3.8404,3.8528,3.8548,3.8562,3.8513,3.8575,3.8613,3.8589,3.8833,3.8768,3.8799,3.888,3.9126,3.9138,3.9149,3.9213,3.9236,3.9255,0,0,0,0,0,0,3.8156,3.8237,3.8224,3.8381,3.8448,3.8521,3.8601,3.8586,3.8669,3.8659,3.8673,3.8692,3.8833,3.8871,3.8797,3.9041,3.8972,3.899,3.9011,3.9033,3.905,3.9037,3.8738,0,0,0,0,0,3.8187,3.8282,3.8347,3.848,3.8514,3.8552,3.8606,3.8611,3.8681,3.8709,3.8756,3.8825,3.8916,3.8977,3.9065,3.9227,3.9243,3.9298,3.9315,3.9329,3.9344,3.943,3.9455,3.9193,3.9193,3.9193,0,0,3.8253,3.8308,3.8367,3.8493,3.8545,3.8641,3.8576,3.8681,3.8753,3.8725,3.8858,3.8896,3.8972,3.9123,3.9191,3.9159,3.942,3.9344,3.9354,3.9362,3.9445,3.9469,3.9491,3.9201,3.92,3.9199,0,0,3.842,3.8473,3.8588,3.8642,3.8721,3.8745,3.8773,3.8848,3.8872,3.9006,3.8986,3.9071,3.923,3.9285,3.9334,3.9521,3.9501,3.9549,3.9639,3.9723,3.9743,3.9762,3.9826,3.985,3.9565,3.9565,3.9565,0,3.8491,3.8637,3.8649,3.8756,3.8811,3.879,3.8906,3.8957,3.9062,3.91,3.9062,3.9259,3.931,3.9471,3.9516,3.9558,3.9588,3.9539,3.9739,3.9758,3.9775,3.9837,3.9862,3.957,3.9569,3.9569,3.9568,0,3.8719,3.882,3.8903,3.9004,3.9068,3.9179,3.9208,3.9271,3.927,3.9298,3.9434,3.9493,3.9592,3.9631,3.9632,3.9793,3.977,3.9736,3.9667,3.9805,3.9863,3.9887,3.9577,3.9575,3.9574,3.9573,0,0,3.8929,3.9033,3.9064,3.9108,3.9194,3.9272,3.9381,3.9477,3.9531,3.9603,3.9694,3.9828,3.9797,3.9852,3.9858,3.9932,4.0074,3.9889,3.9891,3.9919,4.0252,4.0276,4.0304,4.0061,4.0066,4.007,4.0245,0,3.9103,3.9295,3.9309,3.9482,3.9574,3.9555,3.965,3.9712,3.9741,3.9822,3.9854,3.9948,3.99,3.9933,4.0005,4.0041,4.014,4.0029,4.0145,4.0149,4.0125,4.0334,4.0361,4.0523,4.0268,4.0272,4.0275,0,3.9332,3.941,3.9593,3.9663,3.9703,3.9788,3.9876,3.9955,4.0024,4.004,4.0101,4.0097,4.0207,4.0135,4.0287,4.0211,4.0259,4.0284,4.0291,4.0301,4.0219,4.0349,4.0576,4.0599,4.0311,4.0309,4.0306,0,3.9464,3.9615,3.9743,3.9782,3.9869,3.9928,3.9967,4.0032,4.0088,4.0166,4.0202,4.0291,4.034,4.0408,4.0428,4.0374,4.0579,4.0509,4.0593,4.0593,4.0637,4.0633,4.0873,4.0671,4.067,4.067,4.0669,0,3.9656,3.9768,3.9804,3.9882,4.0007,4.0021,4.0143,4.0178,4.0236,4.032,4.0309,4.0388,4.041,4.0493,4.0509,4.0631,4.0654,4.0668,4.0671,4.0669,4.0666,4.0699,4.0688,4.0676,4.0675,4.0674,4.0672,0,3.9825,3.9853,3.9991,4.0061,4.0081,4.0169,4.0229,4.0304,4.033,4.0437,4.0463,4.0504,4.0601,4.0627,4.0744,4.0754,4.0898,4.0891,4.0874,4.0873,4.0956,4.0947,4.1224,4.126,4.1035,4.1038,4.1039,0,3.9945,4.0031,4.0109,4.0164,4.0205,4.0295,4.0352,4.0369,4.0429,4.0513,4.0578,4.0673,4.075,4.0906,4.0946,4.1034,4.1028,4.1119,4.1041,4.1035,4.1027,4.1021,4.1029,4.1133,4.1136,4.1138,4.1139,0,4.0155,4.0164,4.0247,4.0334,4.0402,4.0472,4.0538,4.0584,4.061,4.0678,4.0776,4.0836,4.0954,4.1048,4.1137,4.1176,4.1162,4.1163,4.1187,4.1185,4.1171,4.1178,4.0912,4.1157,4.1155,4.1154,4.1153,4.1152,4.0302,4.0376,4.0442,4.0534,4.0586,4.0648,4.0721,4.0756,4.0838,4.0935,4.094,4.1046,4.1112,4.123,4.1274,4.1356,4.1329,4.1364,4.1373,4.1381,4.1387,4.1159,4.1373,4.1372,4.1372,4.1372,4.1371,0,4.051,4.0551,4.0635,4.0728,4.08,4.078,4.0852,4.0913,4.1007,4.1069,4.1144,4.1257,4.1347,4.1394,4.1484,4.1541,4.1537,4.1564,4.1559,4.1568,4.1407,4.1377,4.1566,4.1566,4.1566,4.1566,4.1566,4.1566,4.0626,4.075,4.0767,4.0915,4.0955,4.1059,4.1101,4.1158,4.1207,4.1333,4.1408,4.1438,4.1494,4.1587,4.1669,4.168,4.1713,4.1743,4.1751,4.16,4.158,4.1561,4.1532,4.1751,4.1751,4.1905,4.1906,4.1907]},{"header":{"parameterUnit":"m.s-1","parameterCategory":1,"la1":30.2991,"la2":30.254,"lo1":-89.0895,"lo2":-89.0444,"dy":0.0017,"dx":0.0017,"nx":28,"ny":28,"refTime":"2023-08-17T03:00:00:Z","depth":0,"parameterNumber":3,"parameterNumberName":"V-component_of_WINDS"},"data":[0,0,0,0,0,0,0,0,0,0,0,0,0,0,0,0,0,0,0,0,0,0,0,0,0,0,0,0,0,0,0,0,0,0,0,0,0,0,0,0,0,0,0,0,0,0,0,0,0,0,0,0,0,0,0,0,0,0,-0.0857,-0.0856,0,-0.0827,-0.0826,-0.0826,-0.0826,-0.0826,-0.0826,-0.0827,-0.0794,-0.0793,-0.0792,0,0,0,0,0,0,0,0,0,0,0,0,0,-0.0913,-0.0912,-0.0857,-0.0856,-0.0856,-0.0827,-0.0826,-0.0826,-0.0825,-0.0826,-0.0826,-0.0827,-0.0795,-0.0793,-0.0792,0,0,0,0,0,0,0,0,0,0,0,0,0,-0.0887,-0.0912,-0.0857,-0.0852,-0.0852,-0.0827,-0.0826,-0.0826,-0.0825,-0.0826,-0.0827,-0.0827,-0.0795,-0.0794,-0.0792,-0.0769,0,0,-0.0786,-0.0785,0,0,0,0,0,0,0,0,-0.0888,-0.0885,-0.0853,-0.0853,-0.0852,-0.083,-0.0834,-0.0807,-0.0825,-0.0835,-0.0827,-0.0827,-0.0806,-0.0803,-0.0796,-0.0767,-0.0766,-0.0786,-0.0785,-0.0784,-0.0784,0,0,0,0,0,0,0,-0.089,-0.0886,-0.0845,-0.0853,-0.0852,-0.0852,-0.0848,-0.0829,-0.0818,-0.0834,-0.0834,-0.0831,-0.0806,-0.0798,-0.0795,-0.0766,-0.0786,-0.0784,-0.0783,-0.0783,-0.0718,-0.0717,0,0,0,0,0,0,-0.0893,-0.0887,-0.0846,-0.0844,-0.0872,-0.085,-0.0847,-0.0837,-0.0818,-0.0816,-0.083,-0.0831,-0.0801,-0.0798,-0.0794,-0.0767,-0.0784,-0.0782,-0.0781,-0.0718,-0.0718,-0.0717,0,0,0,0,0,0,-0.0894,-0.0889,-0.0847,-0.0866,-0.086,-0.0849,-0.0837,-0.0836,-0.0828,-0.0815,-0.0813,-0.0825,-0.0801,-0.0797,-0.0776,-0.0766,-0.0782,-0.078,-0.0719,-0.0718,-0.0717,-0.0711,0,0,0,0,0,0,-0.0896,-0.089,-0.0881,-0.0865,-0.0859,-0.0829,-0.0837,-0.0835,-0.0825,-0.0826,-0.0809,-0.0807,-0.0801,-0.0778,-0.0774,-0.0763,-0.0779,-0.072,-0.0719,-0.0717,-0.0712,-0.071,-0.0709,0,0,0,0,0,-0.0898,-0.088,-0.088,-0.0875,-0.0848,-0.0828,-0.0825,-0.0819,-0.0825,-0.0816,-0.0807,-0.0807,-0.0768,-0.0776,-0.0771,-0.076,-0.072,-0.0719,-0.0718,-0.0713,-0.0711,-0.0709,0,0,0,0,0,0,-0.0893,-0.0878,-0.0878,-0.0855,-0.0843,-0.0828,-0.0817,-0.0816,-0.0802,-0.0803,-0.0797,-0.0793,-0.0772,-0.0764,-0.0773,-0.0738,-0.0745,-0.0742,-0.0743,-0.0741,-0.0739,-0.0741,-0.0777,0,0,0,0,0,-0.089,-0.0875,-0.0862,-0.0843,-0.0837,-0.0828,-0.0819,-0.0816,-0.0803,-0.0798,-0.0788,-0.0775,-0.076,-0.075,-0.0735,-0.0712,-0.0708,-0.0702,-0.07,-0.0698,-0.0696,-0.0684,-0.0681,-0.0712,-0.0712,-0.0712,0,0,-0.0882,-0.0872,-0.0863,-0.0842,-0.0832,-0.0817,-0.0824,-0.0807,-0.0796,-0.0795,-0.0775,-0.0767,-0.0753,-0.073,-0.072,-0.0723,-0.0687,-0.0697,-0.0696,-0.0694,-0.0682,-0.0679,-0.0676,-0.0711,-0.0711,-0.0712,0,0,-0.086,-0.0851,-0.0834,-0.0825,-0.0811,-0.0805,-0.0801,-0.0787,-0.0782,-0.0761,-0.0761,-0.0748,-0.0721,-0.0711,-0.0703,-0.0679,-0.0679,-0.0674,-0.0664,-0.0652,-0.065,-0.0647,-0.0639,-0.0636,-0.0672,-0.0672,-0.0672,0,-0.0852,-0.083,-0.0825,-0.0809,-0.08,-0.08,-0.0783,-0.0774,-0.0756,-0.075,-0.0754,-0.0722,-0.0712,-0.0687,-0.0682,-0.0675,-0.067,-0.0676,-0.065,-0.0648,-0.0646,-0.0638,-0.0635,-0.0672,-0.0672,-0.0672,-0.0672,0,-0.0821,-0.0805,-0.0793,-0.0777,-0.0766,-0.075,-0.0743,-0.0733,-0.0731,-0.0725,-0.0705,-0.0694,-0.0677,-0.0671,-0.0669,-0.0646,-0.0649,-0.0652,-0.0659,-0.0643,-0.0635,-0.0632,-0.0671,-0.0671,-0.0671,-0.0672,0,0,-0.0794,-0.0776,-0.0771,-0.0764,-0.0749,-0.0737,-0.0721,-0.0706,-0.0697,-0.0685,-0.0671,-0.065,-0.0653,-0.0644,-0.0641,-0.063,-0.0612,-0.0634,-0.0634,-0.0631,-0.0588,-0.0585,-0.0582,-0.0613,-0.0612,-0.0612,-0.0589,0,-0.077,-0.0742,-0.0738,-0.0713,-0.0699,-0.0699,-0.0685,-0.0675,-0.0669,-0.0656,-0.065,-0.0635,-0.064,-0.0634,-0.0624,-0.0617,-0.0604,-0.0618,-0.06,-0.0599,-0.0603,-0.0578,-0.0575,-0.0554,-0.0586,-0.0585,-0.0585,0,-0.0738,-0.0726,-0.07,-0.0688,-0.0682,-0.0669,-0.0655,-0.0643,-0.0631,-0.0628,-0.0618,-0.0617,-0.06,-0.0609,-0.0587,-0.0597,-0.0589,-0.0585,-0.0584,-0.0581,-0.059,-0.0574,-0.0547,-0.0544,-0.058,-0.0581,-0.0581,0,-0.0721,-0.0698,-0.068,-0.0673,-0.0659,-0.065,-0.0644,-0.0633,-0.0624,-0.0612,-0.0606,-0.0592,-0.0584,-0.0574,-0.0569,-0.0575,-0.0547,-0.0555,-0.0543,-0.0543,-0.0536,-0.0537,-0.0507,-0.0532,-0.0532,-0.0532,-0.0533,0,-0.0695,-0.0678,-0.0672,-0.066,-0.0642,-0.0639,-0.0621,-0.0615,-0.0606,-0.0593,-0.0593,-0.0581,-0.0575,-0.0563,-0.0559,-0.0541,-0.0537,-0.0534,-0.0533,-0.0534,-0.0534,-0.0528,-0.0529,-0.0532,-0.0532,-0.0532,-0.0532,0,-0.0672,-0.0667,-0.0647,-0.0636,-0.0632,-0.062,-0.061,-0.0599,-0.0594,-0.0578,-0.0574,-0.0567,-0.0552,-0.0546,-0.0528,-0.0526,-0.0505,-0.0505,-0.0509,-0.0509,-0.0498,-0.0499,-0.0462,-0.0458,-0.0486,-0.0486,-0.0486,0,-0.0655,-0.0643,-0.0631,-0.0623,-0.0616,-0.0603,-0.0594,-0.0591,-0.0582,-0.0569,-0.0559,-0.0545,-0.0533,-0.051,-0.0502,-0.0489,-0.0489,-0.0477,-0.0486,-0.0488,-0.0488,-0.0489,-0.0488,-0.0475,-0.0475,-0.0474,-0.0474,0,-0.0626,-0.0624,-0.0612,-0.0599,-0.0589,-0.0579,-0.0569,-0.0562,-0.0557,-0.0547,-0.0533,-0.0524,-0.0506,-0.0492,-0.0478,-0.0472,-0.0472,-0.0472,-0.0468,-0.0468,-0.0471,-0.0469,-0.0504,-0.0472,-0.0472,-0.0472,-0.0473,-0.0473,-0.0605,-0.0595,-0.0585,-0.0572,-0.0564,-0.0555,-0.0544,-0.0539,-0.0527,-0.0512,-0.0511,-0.0495,-0.0485,-0.0467,-0.046,-0.0448,-0.0451,-0.0446,-0.0445,-0.0444,-0.0443,-0.0474,-0.0446,-0.0446,-0.0446,-0.0446,-0.0446,0,-0.0576,-0.057,-0.0558,-0.0544,-0.0534,-0.0537,-0.0526,-0.0517,-0.0504,-0.0494,-0.0483,-0.0467,-0.0454,-0.0446,-0.0433,-0.0424,-0.0424,-0.0421,-0.0421,-0.042,-0.0441,-0.0445,-0.0421,-0.0421,-0.0421,-0.0421,-0.0421,-0.0421,-0.0559,-0.0542,-0.0539,-0.0518,-0.0512,-0.0498,-0.0491,-0.0483,-0.0476,-0.0458,-0.0447,-0.0442,-0.0434,-0.042,-0.0408,-0.0407,-0.0402,-0.0398,-0.0396,-0.0416,-0.0418,-0.0421,-0.0425,-0.0397,-0.0397,-0.0376,-0.0376,-0.0376]}]]